Location: De Har
(53.3413°N, 6.6858°E)
Time: 08:01:43
(UTC+00:00)

Cosmos 2333 Rocket - Pass Details

Date: 22 April 2026
Orbit: 842 x 860 km, 70.8° (Epoch: 15 May)

Event Time Altitude Azimuth Distance (km) Brightness Sun altitude
Rises 02:28:30 0° 322° (NW) 3,413 5.5 -14.5°
Reaches altitude 10° 02:31:15 10° 311° (NW) 2,476 4.6 -14.2°
Maximum altitude 02:35:58 28° 255° (WSW) 1,554 3.1 -13.7°
Enters shadow 02:38:59 18° 211° (SSW) 1,985 3.5 -13.3°
